Weather History for KLVS - March, 2014

Change the Weather History Date:

Thursday, March 6, 2014

  Actual Average Record
Temperature  
Mean Temperature 44 °F -  
Max Temperature 64 °F 53 °F 72 °F (1972)
Min Temperature 24 °F 23 °F 3 °F (1948)
Degree Days  
Heating Degree Days 21    
Moisture  
Dew Point 13 °F    
Average Humidity 36    
Maximum Humidity 84    
Minimum Humidity 9    
Precipitation  
Precipitation 0.00 in - - ()
Sea Level Pressure  
Sea Level Pressure 29.93 in    
Wind  
Wind Speed 10 mph (SW)    
Max Wind Speed 20 mph    
Max Gust Speed 20 mph    
Visibility 10 miles    
Events      
Averages and records for this station are not official NWS values.
T = Trace of Precipitation, MM = Missing Value Source: NWS Daily Summary

Daily Weather History Graph

Daily Weather History Graph

Search for Another Location

Airport or City:

Trip Planner

Search our weather history database for the weather conditions in past years. The results will help you decide how hot, cold, wet, or windy it might be!

Date:

Astronomy

Mar. 06, 2014 Rise Set
Actual Time 6:23 AM MST 6:00 PM MST
Civil Twilight 5:58 AM MST 6:25 PM MST
Nautical Twilight 5:28 AM MST 6:55 PM MST
Astronomical Twilight 4:59 AM MST 7:25 PM MST
Moon 9:44 AM MST 11:56 PM MST
Length of Visible Light 12h 27m
Length of Day
11h 36m
Waxing Crescent, 33% of the Moon is Illuminated
Mar 6
Waxing Crescent
Mar 8
First Quarter
Mar 16
Full
Mar 23
Last Quarter
Mar 30
New

Hourly Weather History & Observations

Time (MST) Temp. Windchill Dew Point Humidity Pressure Visibility Wind Dir Wind Speed Gust Speed Precip Events Conditions
12:53 AM 28.9 °F 17.3 °F 21.0 °F 72% 30.12 in 10.0 mi South 16.1 mph - N/A   Clear
1:53 AM 28.0 °F 16.5 °F 21.0 °F 75% 30.12 in 10.0 mi South 15.0 mph - N/A   Clear
2:53 AM 26.1 °F 14.0 °F 19.9 °F 78% 30.10 in 10.0 mi SSW 15.0 mph - N/A   Clear
3:53 AM 27.0 °F 16.7 °F 21.0 °F 78% 30.07 in 10.0 mi South 11.5 mph - N/A   Clear
4:53 AM 24.1 °F 16.0 °F 19.9 °F 84% 30.08 in 10.0 mi WSW 6.9 mph - N/A   Clear
5:53 AM 27.0 °F 21.6 °F 21.9 °F 81% 30.08 in 10.0 mi SSW 4.6 mph - N/A   Clear
6:53 AM 28.9 °F - 23.0 °F 78% 30.11 in 10.0 mi Calm Calm - N/A   Clear
7:53 AM 39.9 °F - 19.9 °F 45% 30.07 in 10.0 mi Calm Calm - N/A   Clear
8:53 AM 46.0 °F 42.5 °F 23.0 °F 40% 30.06 in 10.0 mi ENE 6.9 mph - N/A   Clear
9:53 AM 53.1 °F - 12.9 °F 20% 30.01 in 10.0 mi Variable 4.6 mph - N/A   Clear
10:53 AM 57.0 °F - 9.0 °F 15% 29.96 in 10.0 mi SSW 5.8 mph - N/A   Clear
11:53 AM 60.1 °F - 7.0 °F 12% 29.91 in 10.0 mi SE 4.6 mph - N/A   Clear
12:53 PM 63.0 °F - 8.1 °F 11% 29.86 in 10.0 mi Variable 5.8 mph - N/A   Clear
1:53 PM 62.1 °F - 8.1 °F 12% 29.81 in 10.0 mi Variable 3.5 mph - N/A   Clear
2:53 PM 64.9 °F - 6.1 °F 10% 29.79 in 10.0 mi Variable 5.8 mph - N/A   Clear
3:53 PM 63.0 °F - 1.9 °F 9% 29.79 in 10.0 mi NW 6.9 mph 19.6 mph N/A   Clear
4:53 PM 57.9 °F - 1.9 °F 10% 29.83 in 10.0 mi WNW 12.7 mph - N/A   Clear
5:53 PM 53.1 °F - -0.0 °F 11% 29.85 in 10.0 mi West 4.6 mph - N/A   Clear
6:53 PM 52.0 °F - 1.9 °F 13% 29.85 in 10.0 mi WSW 10.4 mph - N/A   Clear
7:53 PM 46.9 °F - 12.0 °F 24% 29.83 in 10.0 mi SW 6.9 mph - N/A   Clear
8:53 PM 48.9 °F - 7.0 °F 18% 29.80 in 10.0 mi WSW 8.1 mph - N/A   Clear
9:53 PM 46.0 °F 41.9 °F 10.9 °F 24% 29.77 in 10.0 mi South 8.1 mph - N/A   Clear
10:53 PM 48.0 °F - 12.0 °F 24% 29.73 in 10.0 mi WSW 19.6 mph - N/A   Clear
11:53 PM 48.0 °F - 12.9 °F 24% 29.70 in 10.0 mi WSW 11.5 mph - N/A   Clear